FW2087 Weather Reports


time (UTC)temp
C
wind
direction
speed
KPH
gust
KPH
rain 1hr
cm
rain 24hr
cm
rain mn
cm
humidity
%
barometer
mb
20260505151610 21 212 0.0 11.3 0.00 0.00 0.00 63 1015.0
20260505124547 13 172 0.0 0.0 0.00 0.00 0.00 88 1014.9
20260505123037 12 161 0.0 0.0 0.00 0.00 0.00 90 1014.9
20260505121511 11 160 0.0 0.0 0.00 0.00 0.00 90 1015.0
20260505120055 11 160 0.0 0.0 0.00 0.00 0.00 90 1014.8
20260505114551 10 161 0.0 0.0 0.00 0.00 0.00 91 1014.6
20260505113025 9 160 0.0 0.0 0.00 0.00 0.00 90 1014.4
20260505111608 9 160 0.0 0.0 0.00 0.00 0.00 90 1014.1
20260505101511 10 162 0.0 0.0 0.00 0.00 0.00 86 1013.8
20260505100054 10 162 0.0 0.0 0.00 0.00 0.00 85 1013.9
20260505094541 11 162 0.0 0.0 0.00 0.00 0.00 86 1013.5
20260505093038 11 162 0.0 0.0 0.00 0.00 0.00 83 1013.7
20260505091520 12 162 0.0 0.0 0.00 0.00 0.00 82 1013.7
20260505090012 12 162 0.0 0.0 0.00 0.00 0.00 81 1013.6
20260505084549 12 124 0.0 0.0 0.00 0.00 0.00 80 1013.5
20260505083026 12 124 0.0 0.0 0.00 0.00 0.00 80 1013.5
20260505081555 13 124 0.0 0.0 0.00 0.00 0.00 77 1013.5
20260505080025 13 124 0.0 1.6 0.00 0.00 0.00 76 1013.4
20260505074529 13 182 0.0 0.0 0.00 0.00 0.00 77 1013.4
20260505073004 13 185 0.0 0.0 0.00 0.00 0.00 76 1013.5
20260505071549 13 181 0.0 0.0 0.00 0.00 0.00 76 1013.5
20260505070105 13 181 0.0 0.0 0.00 0.00 0.00 77 1013.6
20260505064557 13 181 0.0 0.0 0.00 0.00 0.00 78 1013.7
20260505063050 13 179 0.0 0.0 0.00 0.00 0.00 79 1013.6
20260505061536 13 179 0.0 0.0 0.00 0.00 0.00 79 1013.7
20260505060024 13 179 0.0 0.0 0.00 0.00 0.00 77 1013.6
20260505054557 15 179 0.0 0.0 0.00 0.00 0.00 75 1013.6
20260505053039 16 164 0.0 0.0 0.00 0.00 0.00 72 1013.5
20260505051517 16 345 0.0 1.6 0.00 0.00 0.00 72 1013.5
20260505050103 16 330 0.0 1.6 0.00 0.00 0.00 72 1013.3
20260505041538 13 210 0.0 0.0 0.00 0.00 0.00 81 1013.4
20260505040024 13 210 0.0 0.0 0.00 0.00 0.00 81 1013.4
20260505034513 13 210 0.0 0.0 0.00 0.00 0.00 81 1013.4
20260505033049 13 210 0.0 0.0 0.00 0.00 0.00 78 1013.4
20260505031552 14 210 0.0 0.0 0.00 0.00 0.00 77 1013.5
20260505030011 15 210 0.0 0.0 0.00 0.00 0.00 75 1013.5
20260505024607 15 210 0.0 0.0 0.00 0.00 0.00 73 1013.7
20260505023051 16 210 0.0 1.6 0.00 0.00 0.00 70 1013.6
20260505021539 17 210 0.0 0.0 0.00 0.00 0.00 67 1013.5
20260505020009 18 210 0.0 1.6 0.00 0.00 0.00 62 1013.5
20260505014553 19 217 0.0 1.6 0.00 0.00 0.00 61 1013.3
20260505013100 20 207 0.0 4.8 0.00 0.00 0.00 60 1013.3
20260505011539 20 204 0.0 4.8 0.00 0.00 0.00 59 1013.1
20260505010048 20 311 0.0 4.8 0.00 0.00 0.00 58 1013.2
20260505004537 20 207 0.0 3.2 0.00 0.00 0.00 60 1013.1
20260505003034 21 189 1.6 6.4 0.00 0.00 0.00 59 1012.9
20260505001507 21 219 0.0 4.8 0.00 0.00 0.00 58 1012.7
20260505000058 22 188 0.0 0.0 0.00 0.00 0.00 58 1012.6
20260504234549 22 211 0.0 3.2 0.00 0.00 0.00 57 1012.7
20260504233058 23 219 0.0 6.4 0.00 0.00 0.00 55 1012.6
20260504231536 23 214 3.2 9.7 0.00 0.00 0.00 53 1012.6
20260504230011 23 220 3.2 11.3 0.00 0.00 0.00 51 1012.6
20260504224559 24 205 0.0 11.3 0.00 0.00 0.00 49 1012.6
20260504223041 24 228 4.8 16.1 0.00 0.00 0.00 49 1012.6
20260504221506 24 205 1.6 16.1 0.00 0.00 0.00 51 1012.6
20260504220056 25 184 3.2 16.1 0.00 0.00 0.00 49 1012.6
20260504214525 25 221 4.8 14.5 0.00 0.00 0.00 50 1012.7
20260504213035 25 151 1.6 9.7 0.00 0.00 0.00 51 1012.6
20260504211556 25 201 6.4 17.7 0.00 0.00 0.00 49 1012.7
20260504210003 25 248 4.8 11.3 0.00 0.00 0.00 50 1012.9
20260504204523 26 234 1.6 6.4 0.00 0.00 0.00 48 1013.1
20260504203035 25 200 0.0 12.9 0.00 0.00 0.00 50 1013.2
20260504201606 25 190 0.0 12.9 0.00 0.00 0.00 49 1013.4
20260504200005 25 124 3.2 11.3 0.00 0.00 0.00 51 1013.6
20260504194524 25 281 4.8 11.3 0.00 0.00 0.00 52 1013.7
20260504193037 25 121 0.0 8.0 0.00 0.00 0.00 53 1014.0
20260504191604 25 241 1.6 8.0 0.00 0.00 0.00 54 1014.3
20260504190013 25 211 0.0 4.8 0.00 0.00 0.00 56 1014.5
20260504184557 24 212 3.2 9.7 0.00 0.00 0.00 54 1014.7
20260504183054 24 210 1.6 12.9 0.00 0.00 0.00 55 1014.9
20260504181507 23 307 0.0 9.7 0.00 0.00 0.00 54 1015.2
20260504180022 23 167 1.6 9.7 0.00 0.00 0.00 54 1015.4
20260504174541 23 338 0.0 9.7 0.00 0.00 0.00 55 1015.4
20260504173050 23 224 6.4 16.1 0.00 0.00 0.00 53 1015.7
20260504171613 23 8 0.0 9.7 0.00 0.00 0.00 54 1015.6